| time (UTC) | temp C | wind direction | speed KPH | gust KPH | rain 1hr cm | rain 24hr cm | rain mn cm | humidity % | barometer mb |
| 20260505124216 | 11 | 326 | 14.5 | 14.5 | 0.00 | 0.00 | 0.00 | 52 | 1008.7 |
| 20260505122716 | 12 | 355 | 11.3 | 12.9 | 0.00 | 0.00 | 0.00 | 52 | 1008.6 |
| 20260505121215 | 12 | 323 | 9.7 | 14.5 | 0.00 | 0.00 | 0.00 | 52 | 1008.4 |
| 20260505115715 | 12 | 328 | 19.3 | 25.7 | 0.00 | 0.00 | 0.00 | 52 | 1008.2 |
| 20260505114215 | 12 | 346 | 14.5 | 14.5 | 0.00 | 0.00 | 0.00 | 53 | 1007.6 |
| 20260505112715 | 12 | 337 | 12.9 | 14.5 | 0.00 | 0.00 | 0.00 | 53 | 1007.8 |
| 20260505111215 | 13 | 321 | 11.3 | 12.9 | 0.00 | 0.00 | 0.00 | 54 | 1007.6 |
| 20260505101214 | 15 | 320 | 20.9 | 29.0 | 0.00 | 0.00 | 0.00 | 49 | 1007.2 |
| 20260505095714 | 16 | 323 | 19.3 | 20.9 | 0.00 | 0.00 | 0.00 | 44 | 1006.7 |
| 20260505094214 | 19 | 333 | 32.2 | 32.2 | 0.00 | 0.00 | 0.00 | 26 | 1006.1 |
| 20260505092714 | 20 | 313 | 12.9 | 19.3 | 0.00 | 0.00 | 0.00 | 24 | 1005.6 |
| 20260505091214 | 20 | 253 | 11.3 | 11.3 | 0.00 | 0.00 | 0.00 | 26 | 1005.5 |
| 20260505085714 | 20 | 254 | 9.7 | 12.9 | 0.00 | 0.00 | 0.00 | 27 | 1005.0 |
| 20260505084214 | 20 | 252 | 8.0 | 14.5 | 0.00 | 0.00 | 0.00 | 26 | 1004.8 |
| 20260505082713 | 20 | 239 | 9.7 | 12.9 | 0.00 | 0.00 | 0.00 | 26 | 1004.6 |
| 20260505081213 | 20 | 216 | 8.0 | 8.0 | 0.00 | 0.00 | 0.00 | 26 | 1004.7 |
| 20260505075713 | 20 | 242 | 4.8 | 9.7 | 0.00 | 0.00 | 0.00 | 26 | 1004.9 |
| 20260505074213 | 20 | 242 | 11.3 | 16.1 | 0.00 | 0.00 | 0.00 | 26 | 1005.1 |
| 20260505072713 | 21 | 244 | 8.0 | 14.5 | 0.00 | 0.00 | 0.00 | 25 | 1005.0 |
| 20260505071213 | 21 | 220 | 9.7 | 11.3 | 0.00 | 0.00 | 0.00 | 25 | 1005.0 |
| 20260505065713 | 21 | 238 | 11.3 | 12.9 | 0.00 | 0.00 | 0.00 | 24 | 1005.0 |
| 20260505064212 | 21 | 223 | 11.3 | 16.1 | 0.00 | 0.00 | 0.00 | 24 | 1004.8 |
| 20260505062712 | 21 | 257 | 11.3 | 16.1 | 0.00 | 0.00 | 0.00 | 24 | 1005.1 |
| 20260505061212 | 21 | 250 | 9.7 | 11.3 | 0.00 | 0.00 | 0.00 | 24 | 1005.1 |
| 20260505055712 | 22 | 245 | 9.7 | 24.1 | 0.00 | 0.00 | 0.00 | 24 | 1005.0 |
| 20260505054212 | 22 | 242 | 8.0 | 11.3 | 0.00 | 0.00 | 0.00 | 23 | 1005.0 |
| 20260505052712 | 22 | 209 | 27.4 | 32.2 | 0.00 | 0.00 | 0.00 | 24 | 1005.1 |
| 20260505051211 | 22 | 251 | 9.7 | 16.1 | 0.00 | 0.00 | 0.00 | 23 | 1005.2 |
| 20260505041211 | 23 | 195 | 11.3 | 16.1 | 0.00 | 0.00 | 0.00 | 23 | 1005.2 |
| 20260505035711 | 23 | 221 | 8.0 | 9.7 | 0.00 | 0.00 | 0.00 | 22 | 1005.3 |
| 20260505034211 | 23 | 192 | 9.7 | 19.3 | 0.00 | 0.00 | 0.00 | 22 | 1005.2 |
| 20260505032711 | 23 | 208 | 11.3 | 12.9 | 0.00 | 0.00 | 0.00 | 20 | 1005.1 |
| 20260505031211 | 23 | 219 | 11.3 | 16.1 | 0.00 | 0.00 | 0.00 | 18 | 1005.0 |
| 20260505025710 | 24 | 203 | 9.7 | 11.3 | 0.00 | 0.00 | 0.00 | 16 | 1005.0 |
| 20260505024210 | 25 | 244 | 9.7 | 9.7 | 0.00 | 0.00 | 0.00 | 16 | 1004.8 |
| 20260505022710 | 25 | 208 | 9.7 | 11.3 | 0.00 | 0.00 | 0.00 | 15 | 1004.7 |
| 20260505021210 | 25 | 224 | 11.3 | 14.5 | 0.00 | 0.00 | 0.00 | 15 | 1004.6 |
| 20260505015710 | 25 | 196 | 14.5 | 19.3 | 0.00 | 0.00 | 0.00 | 15 | 1004.6 |
| 20260505014210 | 26 | 205 | 12.9 | 9.7 | 0.00 | 0.00 | 0.00 | 14 | 1004.6 |
| 20260505012710 | 26 | 207 | 11.3 | 14.5 | 0.00 | 0.00 | 0.00 | 14 | 1004.4 |
| 20260505011209 | 27 | 216 | 4.8 | 12.9 | 0.00 | 0.00 | 0.00 | 14 | 1004.3 |
| 20260505005709 | 27 | 229 | 12.9 | 14.5 | 0.00 | 0.00 | 0.00 | 13 | 1004.4 |
| 20260505004209 | 27 | 244 | 12.9 | 16.1 | 0.00 | 0.00 | 0.00 | 13 | 1004.5 |
| 20260505002709 | 28 | 256 | 14.5 | 19.3 | 0.00 | 0.00 | 0.00 | 13 | 1004.6 |
| 20260505001209 | 28 | 225 | 16.1 | 22.5 | 0.00 | 0.00 | 0.00 | 13 | 1004.6 |
| 20260504235709 | 28 | 251 | 19.3 | 22.5 | 0.00 | 0.00 | 0.00 | 14 | 1004.6 |
| 20260504234209 | 28 | 233 | 8.0 | 9.7 | 0.00 | 0.00 | 0.00 | 19 | 1004.6 |
| 20260504232709 | 28 | 223 | 9.7 | 12.9 | 0.00 | 0.00 | 0.00 | 20 | 1004.7 |
| 20260504231209 | 28 | 203 | 8.0 | 9.7 | 0.00 | 0.00 | 0.00 | 20 | 1004.7 |
| 20260504225708 | 28 | 255 | 12.9 | 14.5 | 0.00 | 0.00 | 0.00 | 20 | 1004.9 |
| 20260504224208 | 29 | 222 | 9.7 | 11.3 | 0.00 | 0.00 | 0.00 | 18 | 1004.9 |
| 20260504222708 | 30 | 251 | 12.9 | 19.3 | 0.00 | 0.00 | 0.00 | 17 | 1005.2 |
| 20260504221208 | 30 | 253 | 11.3 | 12.9 | 0.00 | 0.00 | 0.00 | 16 | 1005.2 |
| 20260504215708 | 30 | 256 | 11.3 | 16.1 | 0.00 | 0.00 | 0.00 | 17 | 1005.3 |
| 20260504214208 | 29 | 243 | 22.5 | 32.2 | 0.00 | 0.00 | 0.00 | 17 | 1005.6 |
| 20260504212708 | 29 | 241 | 9.7 | 9.7 | 0.00 | 0.00 | 0.00 | 18 | 1005.7 |
| 20260504211207 | 30 | 211 | 16.1 | 19.3 | 0.00 | 0.00 | 0.00 | 18 | 1006.3 |
| 20260504205707 | 29 | 259 | 14.5 | 19.3 | 0.00 | 0.00 | 0.00 | 18 | 1006.3 |
| 20260504204207 | 29 | 227 | 19.3 | 27.4 | 0.00 | 0.00 | 0.00 | 18 | 1006.6 |
| 20260504202707 | 29 | 202 | 9.7 | 11.3 | 0.00 | 0.00 | 0.00 | 21 | 1006.6 |
| 20260504201207 | 28 | 242 | 11.3 | 22.5 | 0.00 | 0.00 | 0.00 | 22 | 1006.9 |
| 20260504195707 | 28 | 246 | 11.3 | 20.9 | 0.00 | 0.00 | 0.00 | 21 | 1007.2 |
| 20260504194207 | 28 | 223 | 12.9 | 20.9 | 0.00 | 0.00 | 0.00 | 21 | 1007.4 |
| 20260504192706 | 28 | 266 | 16.1 | 19.3 | 0.00 | 0.00 | 0.00 | 21 | 1007.6 |
| 20260504191206 | 28 | 239 | 9.7 | 11.3 | 0.00 | 0.00 | 0.00 | 22 | 1007.6 |
| 20260504185706 | 28 | 277 | 20.9 | 25.7 | 0.00 | 0.00 | 0.00 | 20 | 1007.9 |
| 20260504184206 | 28 | 251 | 16.1 | 20.9 | 0.00 | 0.00 | 0.00 | 21 | 1008.1 |
| 20260504182706 | 28 | 257 | 12.9 | 19.3 | 0.00 | 0.00 | 0.00 | 21 | 1008.6 |
| 20260504181206 | 28 | 267 | 12.9 | 16.1 | 0.00 | 0.00 | 0.00 | 22 | 1008.8 |
| 20260504175706 | 28 | 247 | 24.1 | 29.0 | 0.00 | 0.00 | 0.00 | 22 | 1009.0 |
| 20260504174206 | 28 | 243 | 19.3 | 22.5 | 0.00 | 0.00 | 0.00 | 22 | 1009.3 |
| 20260504172705 | 27 | 253 | 14.5 | 19.3 | 0.00 | 0.00 | 0.00 | 22 | 1009.5 |
| 20260504171205 | 28 | 266 | 11.3 | 11.3 | 0.00 | 0.00 | 0.00 | 22 | 1009.6 |